シュヴァスマン-ヴァハマン第1彗星

29P/Schwassmann-Wachmann 1 (2019)

English version
Home page
Updated on January 13, 2021

---------------------------------------------------------------------

・ プロフィール

・ 写真集

・ 軌道要素

Epoch 2019 Mar. 18.0 TT = JDT 2458560.5
T 2019 Mar. 7.75566 TT                                  Rudenko
q   5.7668219            (2000.0)            P               Q
n   0.06662628     Peri.   47.77433     +0.99270159     -0.00956836
a   6.0261368      Node   312.39461     -0.05135227     +0.86841756
e   0.0430317      Incl.    9.36832     +0.10911689     +0.49574125
P  14.8
From 34047 observations 1902 Mar. 4-2020 Sept. 23, mean residual 0".9.

・ 星図

・ 光度変化

        m1 = 4.0 + 5 logΔ + 7.5 log r

---------------------------------------------------------------------

軌道要素はM.P.E.C. 2020-S188に掲載されたものです。
星図はステラナビゲータ Ver.8 (アストロアーツ) で作成したものです。
光度グラフはComet for Windowsで作成したものです。

---------------------------------------------------------------------

Copyright(C) Seiichi Yoshida (comet@aerith.net). All rights reserved.